Overview Statistics Trail Chart Weather Telemetry Raw packets
 

This is the latest recevied weather packets stored in our database for station/object E24BD-10. If no packets are shown the sender has not sent any weather packets the latest 10 day(s).

<< 15 16 17 18 19 20 21 >>
Time Temp. Humidity Pressure Rain* Wind** Luminosity Snow
1777379986 37.22° C 49% 996 hPa - - 0 W/m² -
1777379061 38.33° C 45% 996 hPa - - 0 W/m² -
1777378137 37.78° C 47% 996 hPa - - 0 W/m² -
1777377212 39.44° C 43% 995 hPa - - 0 W/m² -
1777376287 39.44° C 43% 995 hPa - - 0 W/m² -
1777375363 40° C 43% 995 hPa - - 0 W/m² -
1777374439 40° C 43% 995 hPa - - 0 W/m² -
1777373515 40° C 43% 995 hPa - - 0 W/m² -
1777372590 40.56° C 43% 995 hPa - - 0 W/m² -
1777371666 40.56° C 43% 994 hPa - - 0 W/m² -
1777370741 40.56° C 44% 994 hPa - - 0 W/m² -
1777369816 40.56° C 42% 994 hPa - - 0 W/m² -
1777368892 39.44° C 44% 994 hPa - - 0 W/m² -
1777367967 39.44° C 43% 994 hPa - - 0 W/m² -
1777367043 38.89° C 44% 994 hPa - - 0 W/m² -
1777366118 37.78° C 46% 995 hPa - - 0 W/m² -
1777085942 37.22° C 43% 1008 hPa - - 0 W/m² -
1777085018 36.67° C 43% 1008 hPa - - 0 W/m² -
1777084093 35.56° C 46% 1008 hPa - - 0 W/m² -
1777082906 36.11° C 44% 1009 hPa - - 0 W/m² -
1777081978 35.56° C 45% 1009 hPa - - 0 W/m² -
1777081042 35° C 48% 1009 hPa - - 0 W/m² -
1777080113 34.44° C 48% 1008 hPa - - 0 W/m² -
1777079188 33.33° C 49% 1008 hPa - - 0 W/m² -
1777078264 32.78° C 51% 1008 hPa - - 0 W/m² -

* Rain since midnight (hover to see other rain measurements)
** Current wind speed in m/s (hover to see current wind gust speed)